Year,Month,Day,Hour,Minute,Value (Times are PST for windgust in km/hr)
2011,09,26,00,00,1.60
2011,09,26,00,01,1.60
2011,09,26,00,02,3.20
2011,09,26,00,03,1.60
2011,09,26,00,04,1.60
2011,09,26,00,05,1.60
2011,09,26,00,06,8.10
2011,09,26,00,07,6.40
2011,09,26,00,08,4.80
2011,09,26,00,09,6.40
2011,09,26,00,10,3.20
2011,09,26,00,11,3.20
2011,09,26,00,12,1.60
2011,09,26,00,14,1.60
2011,09,26,00,16,1.60
2011,09,26,00,17,1.60
2011,09,26,00,19,1.60
2011,09,26,00,20,1.60
2011,09,26,00,21,1.60
2011,09,26,00,22,1.60
2011,09,26,00,23,1.60
2011,09,26,00,29,1.60
2011,09,26,00,47,1.60
2011,09,26,00,57,1.60
2011,09,26,01,37,1.60
2011,09,26,01,42,1.60
2011,09,26,01,43,1.60
2011,09,26,01,44,1.60
2011,09,26,01,45,1.60
2011,09,26,01,47,1.60
2011,09,26,01,48,1.60
2011,09,26,01,49,1.60
2011,09,26,01,50,1.60
2011,09,26,01,51,1.60
2011,09,26,01,55,1.60
2011,09,26,01,56,1.60
2011,09,26,01,58,1.60
2011,09,26,02,02,1.60
2011,09,26,02,04,1.60
2011,09,26,02,05,4.80
2011,09,26,02,06,1.60
2011,09,26,02,07,1.60
2011,09,26,02,08,1.60
2011,09,26,02,09,4.80
2011,09,26,02,10,3.20
2011,09,26,02,11,1.60
2011,09,26,02,12,1.60
2011,09,26,02,13,1.60
2011,09,26,02,14,1.60
2011,09,26,02,15,1.60
2011,09,26,02,16,3.20
2011,09,26,02,17,8.10
2011,09,26,02,18,3.20
2011,09,26,02,19,3.20
2011,09,26,02,20,3.20
2011,09,26,02,21,3.20
2011,09,26,02,22,1.60
2011,09,26,02,23,4.80
2011,09,26,02,24,6.40
2011,09,26,02,25,4.80
2011,09,26,02,26,4.80
2011,09,26,02,27,3.20
2011,09,26,02,30,1.60
2011,09,26,02,31,1.60
2011,09,26,02,32,1.60
2011,09,26,02,33,6.40
2011,09,26,02,34,3.20
2011,09,26,02,35,6.40
2011,09,26,02,36,4.80
2011,09,26,02,37,6.40
2011,09,26,02,38,3.20
2011,09,26,02,39,4.80
2011,09,26,02,40,4.80
2011,09,26,02,41,6.40
2011,09,26,02,42,6.40
2011,09,26,02,43,6.40
2011,09,26,02,44,6.40
2011,09,26,02,45,4.80
2011,09,26,02,46,3.20
2011,09,26,02,47,4.80
2011,09,26,02,48,6.40
2011,09,26,02,49,4.80
2011,09,26,02,50,4.80
2011,09,26,02,51,3.20
2011,09,26,02,52,4.80
2011,09,26,02,53,1.60
2011,09,26,02,54,3.20
2011,09,26,02,55,1.60
2011,09,26,02,56,3.20
2011,09,26,02,57,3.20
2011,09,26,02,58,4.80
2011,09,26,02,59,3.20
2011,09,26,03,00,6.40
2011,09,26,03,01,3.20
2011,09,26,03,02,6.40
2011,09,26,03,03,8.10
2011,09,26,03,04,8.10
2011,09,26,03,05,1.60
2011,09,26,03,06,1.60
2011,09,26,03,07,1.60
2011,09,26,03,08,4.80
2011,09,26,03,09,4.80
2011,09,26,03,10,4.80
2011,09,26,03,11,6.40
2011,09,26,03,12,8.10
2011,09,26,03,13,4.80
2011,09,26,03,14,6.40
2011,09,26,03,15,8.10
2011,09,26,03,16,3.20
2011,09,26,03,17,8.10
2011,09,26,03,18,4.80
2011,09,26,03,19,4.80
2011,09,26,03,20,6.40
2011,09,26,03,21,4.80
2011,09,26,03,22,4.80
2011,09,26,03,23,9.60
2011,09,26,03,24,4.80
2011,09,26,03,25,8.10
2011,09,26,03,26,6.40
2011,09,26,03,27,8.10
2011,09,26,03,28,6.40
2011,09,26,03,29,6.40
2011,09,26,03,30,9.60
2011,09,26,03,31,3.20
2011,09,26,03,32,3.20
2011,09,26,03,33,1.60
2011,09,26,03,34,4.80
2011,09,26,03,35,4.80
2011,09,26,03,36,3.20
2011,09,26,03,37,8.10
2011,09,26,03,38,8.10
2011,09,26,03,39,1.60
2011,09,26,03,40,3.20
2011,09,26,03,41,9.60
2011,09,26,03,42,1.60
2011,09,26,03,43,3.20
2011,09,26,03,44,6.40
2011,09,26,03,45,1.60
2011,09,26,03,46,3.20
2011,09,26,03,47,3.20
2011,09,26,03,49,1.60
2011,09,26,03,50,4.80
2011,09,26,03,51,4.80
2011,09,26,03,52,6.40
2011,09,26,03,53,8.10
2011,09,26,03,54,3.20
2011,09,26,03,55,3.20
2011,09,26,03,56,4.80
2011,09,26,03,57,3.20
2011,09,26,03,58,4.80
2011,09,26,03,59,6.40
2011,09,26,04,00,6.40
2011,09,26,04,01,4.80
2011,09,26,04,02,14.50
2011,09,26,04,03,14.50
2011,09,26,04,11,6.40
2011,09,26,04,12,3.20
2011,09,26,04,13,1.60
2011,09,26,04,14,3.20
2011,09,26,04,15,4.80
2011,09,26,04,16,4.80
2011,09,26,04,17,3.20
2011,09,26,04,18,4.80
2011,09,26,04,19,8.10
2011,09,26,04,20,6.40
2011,09,26,04,21,1.60
2011,09,26,04,22,1.60
2011,09,26,04,23,1.60
2011,09,26,04,27,1.60
2011,09,26,04,32,1.60
2011,09,26,04,33,1.60
2011,09,26,04,34,1.60
2011,09,26,04,35,3.20
2011,09,26,04,36,3.20
2011,09,26,04,37,1.60
2011,09,26,04,38,1.60
2011,09,26,04,40,1.60
2011,09,26,04,42,1.60
2011,09,26,04,43,1.60
2011,09,26,04,44,3.20
2011,09,26,04,45,3.20
2011,09,26,04,46,4.80
2011,09,26,04,47,6.40
2011,09,26,04,48,14.50
2011,09,26,04,49,11.30
2011,09,26,04,50,8.10
2011,09,26,04,51,11.30
2011,09,26,04,52,11.30
2011,09,26,04,53,9.60
2011,09,26,04,54,8.10
2011,09,26,04,55,4.80
2011,09,26,04,56,3.20
2011,09,26,04,57,8.10
2011,09,26,04,58,3.20
2011,09,26,04,59,3.20
2011,09,26,05,00,8.10
2011,09,26,05,01,3.20
2011,09,26,05,02,3.20
2011,09,26,05,04,1.60
2011,09,26,05,05,1.60
2011,09,26,05,07,11.30
2011,09,26,05,08,9.60
2011,09,26,05,09,3.20
2011,09,26,05,10,4.80
2011,09,26,05,11,1.60
2011,09,26,05,12,8.10
2011,09,26,05,13,11.30
2011,09,26,05,14,8.10
2011,09,26,05,15,14.50
2011,09,26,05,16,4.80
2011,09,26,05,17,1.60
2011,09,26,05,18,8.10
2011,09,26,05,19,9.60
2011,09,26,05,20,3.20
2011,09,26,05,21,6.40
2011,09,26,05,22,8.10
2011,09,26,05,23,16.10
2011,09,26,05,24,6.40
2011,09,26,05,25,8.10
2011,09,26,05,26,8.10
2011,09,26,05,27,4.80
2011,09,26,05,28,11.30
2011,09,26,05,29,3.20
2011,09,26,05,30,6.40
2011,09,26,05,31,3.20
2011,09,26,05,32,8.10
2011,09,26,05,33,3.20
2011,09,26,05,34,6.40
2011,09,26,05,35,3.20
2011,09,26,05,36,8.10
2011,09,26,05,37,6.40
2011,09,26,05,39,3.20
2011,09,26,05,40,9.60
2011,09,26,05,41,3.20
2011,09,26,05,42,6.40
2011,09,26,05,43,9.60
2011,09,26,05,44,17.70
2011,09,26,05,45,14.50
2011,09,26,05,46,16.10
2011,09,26,05,47,16.10
2011,09,26,05,48,8.10
2011,09,26,05,49,11.30
2011,09,26,05,50,8.10
2011,09,26,05,51,3.20
2011,09,26,05,52,14.50
2011,09,26,05,53,8.10
2011,09,26,05,54,6.40
2011,09,26,05,55,14.50
2011,09,26,05,56,12.90
2011,09,26,05,57,8.10
2011,09,26,05,58,16.10
2011,09,26,05,59,8.10
2011,09,26,06,00,6.40
2011,09,26,06,01,6.40
2011,09,26,06,02,9.60
2011,09,26,06,03,9.60
2011,09,26,06,04,22.50
2011,09,26,06,05,16.10
2011,09,26,06,06,16.10
2011,09,26,06,07,9.60
2011,09,26,06,08,9.60
2011,09,26,06,09,14.50
2011,09,26,06,10,8.10
2011,09,26,06,11,11.30
2011,09,26,06,12,19.30
2011,09,26,06,13,9.60
2011,09,26,06,14,8.10
2011,09,26,06,15,17.70
2011,09,26,06,16,17.70
2011,09,26,06,17,14.50
2011,09,26,06,18,22.50
2011,09,26,06,19,11.30
2011,09,26,06,20,9.60
2011,09,26,06,21,19.30
2011,09,26,06,22,11.30
2011,09,26,06,23,8.10
2011,09,26,06,24,16.10
2011,09,26,06,25,22.50
2011,09,26,06,26,16.10
2011,09,26,06,27,14.50
2011,09,26,06,28,16.10
2011,09,26,06,29,16.10
2011,09,26,06,30,24.20
2011,09,26,06,31,14.50
2011,09,26,06,32,16.10
2011,09,26,06,33,14.50
2011,09,26,06,34,16.10
2011,09,26,06,35,11.30
2011,09,26,06,36,16.10
2011,09,26,06,37,9.60
2011,09,26,06,38,19.30
2011,09,26,06,39,17.70
2011,09,26,06,40,8.10
2011,09,26,06,41,16.10
2011,09,26,06,42,14.50
2011,09,26,06,43,17.70
2011,09,26,06,44,9.60
2011,09,26,06,45,9.60
2011,09,26,06,46,8.10
2011,09,26,06,47,17.70
2011,09,26,06,48,14.50
2011,09,26,06,49,16.10
2011,09,26,06,50,14.50
2011,09,26,06,51,9.60
2011,09,26,06,52,19.30
2011,09,26,06,53,8.10
2011,09,26,06,54,4.80
2011,09,26,06,55,14.50
2011,09,26,06,56,19.30
2011,09,26,06,57,9.60
2011,09,26,06,58,3.20
2011,09,26,06,59,8.10
2011,09,26,07,00,14.50
2011,09,26,07,01,9.60
2011,09,26,07,02,6.40
2011,09,26,07,03,9.60
2011,09,26,07,04,4.80
2011,09,26,07,05,9.60
2011,09,26,07,06,12.90
2011,09,26,07,07,16.10
2011,09,26,07,08,3.20
2011,09,26,07,09,16.10
2011,09,26,07,10,8.10
2011,09,26,07,11,14.50
2011,09,26,07,12,11.30
2011,09,26,07,13,11.30
2011,09,26,07,14,14.50
2011,09,26,07,15,4.80
2011,09,26,07,16,1.60
2011,09,26,07,17,8.10
2011,09,26,07,18,8.10
2011,09,26,07,19,8.10
2011,09,26,07,20,16.10
2011,09,26,07,21,11.30
2011,09,26,07,22,9.60
2011,09,26,07,23,11.30
2011,09,26,07,24,14.50
2011,09,26,07,25,9.60
2011,09,26,07,26,11.30
2011,09,26,07,27,9.60
2011,09,26,07,28,17.70
2011,09,26,07,29,9.60
2011,09,26,07,30,11.30
2011,09,26,07,31,9.60
2011,09,26,07,32,4.80
2011,09,26,07,33,3.20
2011,09,26,07,34,9.60
2011,09,26,07,35,8.10
2011,09,26,07,36,9.60
2011,09,26,07,37,6.40
2011,09,26,07,38,4.80
2011,09,26,07,39,9.60
2011,09,26,07,40,8.10
2011,09,26,07,41,9.60
2011,09,26,07,42,8.10
2011,09,26,07,44,3.20
2011,09,26,07,45,3.20
2011,09,26,07,46,1.60
2011,09,26,07,48,1.60
2011,09,26,07,49,1.60
2011,09,26,07,50,1.60
2011,09,26,07,51,1.60
2011,09,26,07,52,6.40
2011,09,26,07,53,6.40
2011,09,26,07,54,4.80
2011,09,26,07,55,9.60
2011,09,26,07,56,3.20
2011,09,26,07,57,1.60
2011,09,26,07,58,3.20
2011,09,26,07,59,1.60
2011,09,26,08,00,1.60
2011,09,26,08,01,11.30
2011,09,26,08,02,9.60
2011,09,26,08,03,6.40
2011,09,26,08,04,3.20
2011,09,26,08,05,8.10
2011,09,26,08,06,6.40
2011,09,26,08,07,6.40
2011,09,26,08,08,3.20
2011,09,26,08,09,11.30
2011,09,26,08,10,4.80
2011,09,26,08,11,14.50
2011,09,26,08,12,11.30
2011,09,26,08,13,17.70
2011,09,26,08,14,9.60
2011,09,26,08,15,14.50
2011,09,26,08,16,9.60
2011,09,26,08,17,16.10
2011,09,26,08,18,19.30
2011,09,26,08,19,19.30
2011,09,26,08,20,16.10
2011,09,26,08,21,9.60
2011,09,26,08,22,14.50
2011,09,26,08,23,16.10
2011,09,26,08,24,11.30
2011,09,26,08,25,12.90
2011,09,26,08,26,14.50
2011,09,26,08,27,12.90
2011,09,26,08,28,24.20
2011,09,26,08,29,19.30
2011,09,26,08,30,19.30
2011,09,26,08,31,20.90
2011,09,26,08,32,25.70
2011,09,26,08,33,27.40
2011,09,26,08,34,17.70
2011,09,26,08,35,24.20
2011,09,26,08,36,19.30
2011,09,26,08,37,22.50
2011,09,26,08,38,16.10
2011,09,26,08,39,20.90
2011,09,26,08,40,16.10
2011,09,26,08,41,19.30
2011,09,26,08,42,25.70
2011,09,26,08,43,24.20
2011,09,26,08,44,16.10
2011,09,26,08,45,11.30
2011,09,26,08,46,24.20
2011,09,26,08,47,16.10
2011,09,26,08,48,14.50
2011,09,26,08,49,32.20
2011,09,26,08,50,29.00
2011,09,26,08,51,27.40
2011,09,26,08,52,16.10
2011,09,26,08,53,22.50
2011,09,26,08,54,24.20
2011,09,26,08,55,22.50
2011,09,26,08,56,27.40
2011,09,26,08,57,27.40
2011,09,26,08,58,20.90
2011,09,26,08,59,22.50
2011,09,26,09,00,29.00
2011,09,26,09,01,29.00
2011,09,26,09,02,29.00
2011,09,26,09,03,17.70
2011,09,26,09,04,20.90
2011,09,26,09,05,27.40
2011,09,26,09,06,19.30
2011,09,26,09,07,30.60
2011,09,26,09,08,24.20
2011,09,26,09,09,29.00
2011,09,26,09,10,25.70
2011,09,26,09,11,11.30
2011,09,26,09,12,22.50
2011,09,26,09,13,33.80
2011,09,26,09,14,25.70
2011,09,26,09,15,25.70
2011,09,26,09,16,25.70
2011,09,26,09,17,27.40
2011,09,26,09,18,25.70
2011,09,26,09,19,27.40
2011,09,26,09,20,29.00
2011,09,26,09,21,20.90
2011,09,26,09,22,20.90
2011,09,26,09,23,24.20
2011,09,26,09,24,24.20
2011,09,26,09,25,37.00
2011,09,26,09,26,33.80
2011,09,26,09,27,14.50
2011,09,26,09,28,22.50
2011,09,26,09,29,27.40
2011,09,26,09,30,22.50
2011,09,26,09,31,20.90
2011,09,26,09,32,27.40
2011,09,26,09,33,29.00
2011,09,26,09,34,11.30
2011,09,26,09,35,32.20
2011,09,26,09,36,29.00
2011,09,26,09,37,22.50
2011,09,26,09,38,32.20
2011,09,26,09,39,33.80
2011,09,26,09,40,27.40
2011,09,26,09,41,24.20
2011,09,26,09,42,27.40
2011,09,26,09,43,27.40
2011,09,26,09,44,25.70
2011,09,26,09,45,24.20
2011,09,26,09,46,22.50
2011,09,26,09,47,30.60
2011,09,26,09,48,19.30
2011,09,26,09,49,38.60
2011,09,26,09,50,30.60
2011,09,26,09,51,29.00
2011,09,26,09,52,37.00
2011,09,26,09,53,40.20
2011,09,26,09,54,22.50
2011,09,26,09,55,33.80
2011,09,26,09,56,22.50
2011,09,26,09,57,27.40
2011,09,26,09,58,37.00
2011,09,26,09,59,29.00
2011,09,26,10,00,20.90
2011,09,26,10,01,35.40
2011,09,26,10,02,24.20
2011,09,26,10,03,22.50
2011,09,26,10,04,25.70
2011,09,26,10,05,27.40
2011,09,26,10,06,20.90
2011,09,26,10,07,33.80
2011,09,26,10,08,20.90
2011,09,26,10,09,27.40
2011,09,26,10,10,33.80
2011,09,26,10,11,30.60
2011,09,26,10,12,29.00
2011,09,26,10,13,27.40
2011,09,26,10,14,30.60
2011,09,26,10,15,25.70
2011,09,26,10,16,29.00
2011,09,26,10,17,20.90
2011,09,26,10,18,35.40
2011,09,26,10,19,41.80
2011,09,26,10,20,46.70
2011,09,26,10,21,20.90
2011,09,26,10,22,19.30
2011,09,26,10,23,54.70
2011,09,26,10,24,37.00
2011,09,26,10,25,20.90
2011,09,26,10,26,33.80
2011,09,26,10,27,27.40
2011,09,26,10,28,27.40
2011,09,26,10,29,35.40
2011,09,26,10,30,24.20
2011,09,26,10,31,29.00
2011,09,26,10,32,24.20
2011,09,26,10,33,20.90
2011,09,26,10,34,24.20
2011,09,26,10,35,32.20
2011,09,26,10,36,37.00
2011,09,26,10,37,30.60
2011,09,26,10,38,35.40
2011,09,26,10,39,35.40
2011,09,26,10,40,27.40
2011,09,26,10,41,29.00
2011,09,26,10,42,33.80
2011,09,26,10,43,29.00
2011,09,26,10,44,24.20
2011,09,26,10,45,20.90
2011,09,26,10,46,20.90
2011,09,26,10,47,25.70
2011,09,26,10,48,25.70
2011,09,26,10,49,20.90
2011,09,26,10,50,38.60
2011,09,26,10,51,32.20
2011,09,26,10,52,32.20
2011,09,26,10,53,33.80
2011,09,26,10,54,35.40
2011,09,26,10,55,29.00
2011,09,26,10,56,27.40
2011,09,26,10,57,20.90
2011,09,26,10,58,38.60
2011,09,26,10,59,37.00
2011,09,26,11,00,22.50
2011,09,26,11,01,25.70
2011,09,26,11,02,33.80
2011,09,26,11,03,37.00
2011,09,26,11,04,29.00
2011,09,26,11,05,16.10
2011,09,26,11,06,38.60
2011,09,26,11,07,27.40
2011,09,26,11,08,22.50
2011,09,26,11,09,25.70
2011,09,26,11,10,14.50
2011,09,26,11,11,33.80
2011,09,26,11,12,30.60
2011,09,26,11,13,40.20
2011,09,26,11,14,33.80
2011,09,26,11,15,38.60
2011,09,26,11,16,46.70
2011,09,26,11,17,20.90
2011,09,26,11,18,32.20
2011,09,26,11,19,27.40
2011,09,26,11,20,19.30
2011,09,26,11,21,32.20
2011,09,26,11,22,20.90
2011,09,26,11,23,25.70
2011,09,26,11,24,43.50
2011,09,26,11,25,32.20
2011,09,26,11,26,25.70
2011,09,26,11,27,30.60
2011,09,26,11,28,37.00
2011,09,26,11,29,22.50
2011,09,26,11,30,33.80
2011,09,26,11,31,37.00
2011,09,26,11,32,25.70
2011,09,26,11,33,27.40
2011,09,26,11,34,29.00
2011,09,26,11,35,27.40
2011,09,26,11,36,24.20
2011,09,26,11,37,35.40
2011,09,26,11,38,19.30
2011,09,26,11,39,25.70
2011,09,26,11,40,46.70
2011,09,26,11,41,33.80
2011,09,26,11,42,20.90
2011,09,26,11,43,30.60
2011,09,26,11,44,27.40
2011,09,26,11,45,27.40
2011,09,26,11,46,30.60
2011,09,26,11,47,37.00
2011,09,26,11,48,29.00
2011,09,26,11,49,25.70
2011,09,26,11,50,35.40
2011,09,26,11,51,29.00
2011,09,26,11,52,24.20
2011,09,26,11,53,22.50
2011,09,26,11,54,16.10
2011,09,26,11,55,22.50
2011,09,26,11,56,25.70
2011,09,26,11,57,16.10
2011,09,26,11,58,25.70
2011,09,26,11,59,45.10
2011,09,26,12,00,25.70
2011,09,26,12,01,22.50
2011,09,26,12,02,35.40
2011,09,26,12,03,35.40
2011,09,26,12,04,22.50
2011,09,26,12,05,27.40
2011,09,26,12,06,32.20
2011,09,26,12,07,30.60
2011,09,26,12,08,32.20
2011,09,26,12,09,33.80
2011,09,26,12,10,29.00
2011,09,26,12,11,33.80
2011,09,26,12,12,25.70
2011,09,26,12,13,29.00
2011,09,26,12,14,32.20
2011,09,26,12,15,27.40
2011,09,26,12,16,25.70
2011,09,26,12,17,46.70
2011,09,26,12,18,20.90
2011,09,26,12,19,20.90
2011,09,26,12,20,38.60
2011,09,26,12,21,33.80
2011,09,26,12,22,24.20
2011,09,26,12,23,19.30
2011,09,26,12,24,27.40
2011,09,26,12,25,14.50
2011,09,26,12,26,22.50
2011,09,26,12,27,32.20
2011,09,26,12,28,30.60
2011,09,26,12,29,24.20
2011,09,26,12,30,27.40
2011,09,26,12,31,24.20
2011,09,26,12,32,29.00
2011,09,26,12,33,20.90
2011,09,26,12,34,17.70
2011,09,26,12,35,20.90
2011,09,26,12,36,19.30
2011,09,26,12,37,19.30
2011,09,26,12,38,25.70
2011,09,26,12,39,48.30
2011,09,26,12,40,30.60
2011,09,26,12,41,29.00
2011,09,26,12,42,30.60
2011,09,26,12,43,35.40
2011,09,26,12,44,16.10
2011,09,26,12,45,33.80
2011,09,26,12,46,27.40
2011,09,26,12,47,24.20
2011,09,26,12,48,33.80
2011,09,26,12,49,30.60
2011,09,26,12,50,20.90
2011,09,26,12,51,30.60
2011,09,26,12,52,27.40
2011,09,26,12,53,38.60
2011,09,26,12,54,30.60
2011,09,26,12,55,32.20
2011,09,26,12,56,33.80
2011,09,26,12,57,29.00
2011,09,26,12,58,19.30
2011,09,26,12,59,17.70
2011,09,26,13,00,27.40
2011,09,26,13,01,37.00
2011,09,26,13,02,17.70
2011,09,26,13,03,22.50
2011,09,26,13,04,25.70
2011,09,26,13,05,20.90
2011,09,26,13,06,24.20
2011,09,26,13,07,19.30
2011,09,26,13,08,19.30
2011,09,26,13,09,27.40
2011,09,26,13,10,19.30
2011,09,26,13,11,19.30
2011,09,26,13,12,24.20
2011,09,26,13,13,22.50
2011,09,26,13,14,29.00
2011,09,26,13,15,33.80
2011,09,26,13,16,24.20
2011,09,26,13,17,20.90
2011,09,26,13,18,27.40
2011,09,26,13,19,25.70
2011,09,26,13,20,16.10
2011,09,26,13,21,30.60
2011,09,26,13,22,22.50
2011,09,26,13,23,19.30
2011,09,26,13,24,11.30
2011,09,26,13,25,16.10
2011,09,26,13,26,32.20
2011,09,26,13,27,14.50
2011,09,26,13,28,12.90
2011,09,26,13,29,9.60
2011,09,26,13,30,11.30
2011,09,26,13,31,14.50
2011,09,26,13,32,16.10
2011,09,26,13,33,16.10
2011,09,26,13,34,17.70
2011,09,26,13,35,17.70
2011,09,26,13,36,16.10
2011,09,26,13,37,19.30
2011,09,26,13,38,12.90
2011,09,26,13,39,22.50
2011,09,26,13,40,25.70
2011,09,26,13,41,25.70
2011,09,26,13,42,16.10
2011,09,26,13,43,19.30
2011,09,26,13,44,9.60
2011,09,26,13,45,16.10
2011,09,26,13,46,16.10
2011,09,26,13,47,14.50
2011,09,26,13,48,8.10
2011,09,26,13,49,11.30
2011,09,26,13,50,8.10
2011,09,26,13,51,16.10
2011,09,26,13,52,17.70
2011,09,26,13,53,8.10
2011,09,26,13,54,9.60
2011,09,26,13,55,17.70
2011,09,26,13,56,20.90
2011,09,26,13,57,11.30
2011,09,26,13,58,8.10
2011,09,26,13,59,16.10
2011,09,26,14,00,9.60
2011,09,26,14,01,9.60
2011,09,26,14,02,9.60
2011,09,26,14,03,8.10
2011,09,26,14,04,8.10
2011,09,26,14,05,8.10
2011,09,26,14,06,1.60
2011,09,26,14,07,11.30
2011,09,26,14,08,9.60
2011,09,26,14,09,11.30
2011,09,26,14,10,11.30
2011,09,26,14,11,11.30
2011,09,26,14,12,8.10
2011,09,26,14,13,12.90
2011,09,26,14,14,9.60
2011,09,26,14,15,9.60
2011,09,26,14,16,9.60
2011,09,26,14,17,8.10
2011,09,26,14,18,8.10
2011,09,26,14,19,4.80
2011,09,26,14,20,4.80
2011,09,26,14,21,4.80
2011,09,26,14,22,3.20
2011,09,26,14,23,3.20
2011,09,26,14,24,1.60
2011,09,26,14,25,4.80
2011,09,26,14,26,4.80
2011,09,26,14,27,4.80
2011,09,26,14,28,4.80
2011,09,26,14,29,4.80
2011,09,26,14,30,1.60
2011,09,26,14,31,8.10
2011,09,26,14,32,1.60
2011,09,26,14,34,1.60
2011,09,26,14,35,11.30
2011,09,26,14,36,8.10
2011,09,26,14,37,6.40
2011,09,26,14,38,8.10
2011,09,26,14,39,3.20
2011,09,26,14,40,6.40
2011,09,26,14,41,1.60
2011,09,26,14,42,1.60
2011,09,26,14,45,1.60
2011,09,26,14,48,1.60
2011,09,26,14,49,3.20
2011,09,26,14,50,3.20
2011,09,26,14,51,1.60
2011,09,26,14,52,1.60
2011,09,26,14,53,1.60
2011,09,26,14,54,3.20
2011,09,26,14,55,1.60
2011,09,26,14,56,6.40
2011,09,26,14,57,4.80
2011,09,26,14,58,3.20
2011,09,26,14,59,1.60
2011,09,26,15,00,3.20
2011,09,26,15,01,1.60
2011,09,26,15,02,8.10
2011,09,26,15,03,8.10
2011,09,26,15,04,6.40
2011,09,26,15,05,8.10
2011,09,26,15,06,8.10
2011,09,26,15,07,14.50
2011,09,26,15,08,9.60
2011,09,26,15,09,4.80
2011,09,26,15,10,8.10
2011,09,26,15,11,4.80
2011,09,26,15,12,3.20
2011,09,26,15,13,3.20
2011,09,26,15,14,4.80
2011,09,26,15,15,4.80
2011,09,26,15,16,8.10
2011,09,26,15,17,4.80
2011,09,26,15,18,4.80
2011,09,26,15,19,6.40
2011,09,26,15,20,1.60
2011,09,26,15,21,1.60
2011,09,26,15,22,4.80
2011,09,26,15,23,1.60
2011,09,26,15,25,3.20
2011,09,26,15,26,3.20
2011,09,26,15,27,1.60
2011,09,26,15,28,6.40
2011,09,26,15,29,3.20
2011,09,26,15,30,3.20
2011,09,26,15,31,9.60
2011,09,26,15,32,8.10
2011,09,26,15,33,4.80
2011,09,26,15,34,6.40
2011,09,26,15,35,1.60
2011,09,26,15,38,1.60
2011,09,26,15,40,1.60
2011,09,26,15,41,3.20
2011,09,26,15,42,1.60
2011,09,26,15,48,1.60
2011,09,26,15,49,1.60
2011,09,26,15,50,1.60
2011,09,26,15,55,3.20
2011,09,26,15,57,1.60
2011,09,26,15,59,1.60
2011,09,26,16,04,1.60
2011,09,26,16,05,1.60
2011,09,26,16,11,1.60
2011,09,26,16,13,1.60
2011,09,26,16,14,1.60
2011,09,26,16,19,3.20
2011,09,26,16,20,3.20
2011,09,26,16,21,1.60
2011,09,26,16,22,1.60
2011,09,26,16,23,1.60
2011,09,26,16,24,1.60
2011,09,26,16,25,1.60
2011,09,26,16,26,1.60
2011,09,26,16,28,1.60
2011,09,26,16,29,1.60
2011,09,26,16,30,1.60
2011,09,26,16,31,4.80
2011,09,26,16,32,4.80
2011,09,26,16,33,8.10
2011,09,26,16,34,6.40
2011,09,26,16,35,6.40
2011,09,26,16,36,6.40
2011,09,26,16,37,1.60
2011,09,26,16,39,1.60
2011,09,26,16,43,1.60
2011,09,26,16,46,1.60
2011,09,26,16,47,1.60
2011,09,26,16,48,3.20
2011,09,26,16,49,3.20
2011,09,26,16,50,6.40
2011,09,26,16,51,3.20
2011,09,26,16,52,8.10
2011,09,26,16,53,8.10
2011,09,26,16,54,6.40
2011,09,26,16,55,1.60
2011,09,26,16,57,3.20
2011,09,26,16,58,1.60
2011,09,26,16,59,4.80
2011,09,26,17,00,3.20
2011,09,26,17,01,1.60
2011,09,26,17,02,1.60
2011,09,26,17,03,1.60
2011,09,26,17,04,4.80
2011,09,26,17,05,3.20
2011,09,26,17,06,3.20
2011,09,26,17,08,1.60
2011,09,26,17,09,1.60
2011,09,26,17,10,3.20
2011,09,26,17,11,4.80
2011,09,26,17,12,3.20
2011,09,26,17,13,3.20
2011,09,26,17,16,4.80
2011,09,26,17,17,3.20
2011,09,26,17,18,1.60
2011,09,26,17,19,9.60
2011,09,26,17,20,6.40
2011,09,26,17,21,8.10
2011,09,26,17,22,4.80
2011,09,26,17,23,4.80
2011,09,26,17,24,1.60
2011,09,26,17,25,1.60
2011,09,26,17,26,1.60
2011,09,26,17,27,1.60
2011,09,26,17,28,1.60
2011,09,26,17,29,1.60
2011,09,26,17,30,1.60
2011,09,26,17,31,1.60
2011,09,26,17,32,1.60
2011,09,26,17,33,3.20
2011,09,26,17,34,3.20
2011,09,26,17,35,8.10
2011,09,26,17,36,8.10
2011,09,26,17,37,1.60
2011,09,26,17,38,4.80
2011,09,26,17,39,3.20
2011,09,26,17,40,3.20
2011,09,26,17,41,9.60
2011,09,26,17,42,3.20
2011,09,26,17,43,4.80
2011,09,26,17,44,3.20
2011,09,26,17,45,3.20
2011,09,26,17,46,6.40
2011,09,26,17,47,8.10
2011,09,26,17,48,6.40
2011,09,26,17,49,1.60
2011,09,26,17,51,1.60
2011,09,26,17,52,1.60
2011,09,26,17,55,1.60
2011,09,26,17,56,1.60
2011,09,26,17,57,3.20
2011,09,26,17,58,1.60
2011,09,26,17,59,4.80
2011,09,26,18,00,1.60
2011,09,26,18,01,4.80
2011,09,26,18,04,1.60
2011,09,26,18,05,1.60
2011,09,26,18,06,1.60
2011,09,26,18,39,1.60
2011,09,26,18,40,1.60
2011,09,26,18,45,1.60
2011,09,26,18,46,1.60
2011,09,26,18,55,1.60
2011,09,26,19,04,1.60
2011,09,26,19,05,1.60
2011,09,26,19,06,3.20
2011,09,26,19,07,1.60
2011,09,26,19,08,1.60
2011,09,26,19,09,1.60
2011,09,26,19,12,1.60
2011,09,26,19,17,3.20
2011,09,26,19,18,1.60
2011,09,26,19,19,1.60
2011,09,26,19,24,1.60
2011,09,26,19,38,1.60
2011,09,26,19,39,1.60
2011,09,26,19,43,1.60
2011,09,26,19,45,1.60
2011,09,26,19,46,1.60
2011,09,26,19,59,1.60
2011,09,26,20,00,1.60
2011,09,26,20,04,1.60
2011,09,26,20,05,1.60
2011,09,26,20,10,1.60
2011,09,26,20,11,1.60
2011,09,26,20,12,1.60
2011,09,26,20,13,1.60
2011,09,26,20,14,1.60
2011,09,26,20,15,1.60
2011,09,26,20,20,1.60
2011,09,26,20,22,1.60
2011,09,26,20,23,1.60
2011,09,26,20,25,1.60
2011,09,26,20,27,3.20
2011,09,26,20,31,1.60
2011,09,26,20,32,1.60
2011,09,26,20,34,1.60
2011,09,26,20,35,4.80
2011,09,26,20,36,1.60
2011,09,26,20,37,6.40
2011,09,26,20,38,1.60
2011,09,26,20,39,1.60
2011,09,26,20,40,1.60
2011,09,26,20,41,1.60
2011,09,26,20,42,1.60
2011,09,26,20,43,1.60
2011,09,26,20,44,1.60
2011,09,26,20,51,1.60
2011,09,26,20,52,1.60
2011,09,26,20,53,1.60
2011,09,26,20,59,1.60
2011,09,26,21,00,1.60
2011,09,26,21,03,1.60
2011,09,26,21,07,1.60
2011,09,26,21,08,1.60
2011,09,26,21,09,4.80
2011,09,26,21,10,4.80
2011,09,26,21,11,3.20
2011,09,26,21,12,1.60
2011,09,26,21,13,3.20
2011,09,26,21,14,1.60
2011,09,26,21,15,1.60
2011,09,26,21,16,1.60
2011,09,26,21,17,1.60
2011,09,26,21,19,1.60
2011,09,26,21,20,1.60
2011,09,26,21,25,1.60
2011,09,26,21,27,3.20
2011,09,26,21,28,3.20
2011,09,26,21,29,1.60
2011,09,26,21,36,1.60
2011,09,26,21,37,1.60
2011,09,26,21,38,1.60
2011,09,26,21,39,1.60
2011,09,26,21,40,1.60
2011,09,26,21,41,1.60
2011,09,26,21,44,1.60
2011,09,26,21,48,1.60
2011,09,26,21,49,1.60
2011,09,26,21,50,1.60
2011,09,26,21,51,1.60
2011,09,26,21,52,1.60
2011,09,26,21,53,1.60
2011,09,26,21,54,6.40
2011,09,26,21,55,3.20
2011,09,26,21,56,1.60
2011,09,26,21,57,1.60
2011,09,26,21,58,1.60
2011,09,26,21,59,1.60
2011,09,26,22,01,1.60
2011,09,26,22,02,1.60
2011,09,26,22,03,1.60
2011,09,26,22,04,1.60
2011,09,26,22,06,1.60
2011,09,26,22,07,3.20
2011,09,26,22,08,1.60
2011,09,26,22,09,3.20
2011,09,26,22,10,4.80
2011,09,26,22,11,4.80
2011,09,26,22,12,8.10
2011,09,26,22,13,1.60
2011,09,26,22,14,1.60
2011,09,26,22,15,4.80
2011,09,26,22,16,8.10
2011,09,26,22,17,8.10
2011,09,26,22,20,6.40
2011,09,26,22,25,1.60
2011,09,26,22,26,1.60
2011,09,26,22,31,1.60
2011,09,26,22,32,1.60
2011,09,26,22,33,1.60
2011,09,26,22,34,1.60
2011,09,26,22,35,1.60
2011,09,26,22,36,1.60
2011,09,26,22,37,3.20
2011,09,26,22,38,1.60
2011,09,26,22,39,3.20
2011,09,26,22,40,1.60
2011,09,26,22,51,1.60
2011,09,26,22,53,1.60
2011,09,26,22,54,1.60
2011,09,26,22,55,1.60
2011,09,26,22,56,1.60
2011,09,26,22,57,3.20
2011,09,26,22,58,4.80
2011,09,26,22,59,1.60
2011,09,26,23,00,9.60
2011,09,26,23,01,4.80
2011,09,26,23,02,6.40
2011,09,26,23,03,3.20
2011,09,26,23,07,1.60
2011,09,26,23,08,1.60
2011,09,26,23,09,4.80
2011,09,26,23,10,1.60
2011,09,26,23,12,1.60
2011,09,26,23,13,6.40
2011,09,26,23,14,1.60
2011,09,26,23,15,8.10
2011,09,26,23,17,1.60